Theta_e
297 296 295 294 293 292 290 290 291 291 290 289 289 288 288 288 289 288 288 288 288 288 289 288 287 288 288 288 289 289 287 287 285 288 290 290 290 289 290 291 292 291 291
297 295 295 293 292 291 289 289 290 290 290 289 289 288 287 287 288 287 287 287 287 286 287 287 286 287 287 287 287 287 287 287 286 284 288 288 288 288 289 289 289 291 290
296 295 293 292 291 291 289 288 289 290 289 289 288 288 287 286 287 287 287 286 286 286 287 287 285 285 286 286 286 286 286 286 287 286 285 287 287 287 287 288 288 290 291
294 293 292 292 291 290 288 288 288 289 288 288 287 286 286 286 286 286 286 286 286 286 286 286 285 283 283 284 284 285 285 285 285 285 285 285 285 286 286 284 285 287 290
292 292 292 292 291 290 288 287 287 288 287 287 287 286 286 285 285 285 286 285 285 285 285 285 284 281 279 279 281 282 282 283 283 283 282 283 282 281 281 283 283 285 289
293 292 292 291 289 288 287 287 286 286 286 286 285 283 284 284 280 280 283 284 284 283 282 284 284 282 280 277 276 276 278 278 280 281 281 279 280 280 280 281 281 281 281
293 292 291 290 288 288 287 286 286 286 286 285 284 284 283 283 280 279 279 283 282 282 281 282 282 282 281 280 277 277 277 276 276 280 278 278 278 278 279 279 280 280 281
290 292 291 290 288 288 287 286 287 287 287 286 286 286 286 283 280 279 279 283 282 281 281 281 281 281 279 278 278 278 278 278 277 278 278 277 277 278 278 280 280 281 283
291 290 291 290 289 288 287 287 287 287 287 286 285 285 285 284 279 279 279 284 282 281 280 280 280 280 277 276 277 276 277 277 277 275 274 274 275 275 276 280 277 278 278
290 290 291 291 290 289 288 288 288 288 287 286 285 284 279 284 279 279 279 284 282 282 281 281 276 277 276 275 278 277 275 276 276 277 278 278 278 278 276 278 277 276 276
291 292 291 291 290 290 290 289 288 288 287 286 284 284 283 282 282 279 277 281 281 280 281 281 280 274 275 274 274 275 273 274 276 278 279 279 278 278 278 278 277 277 275
288 289 290 290 289 289 290 289 288 287 286 286 285 284 283 282 278 279 278 277 276 279 280 281 278 273 272 273 275 271 272 275 278 278 277 276 276 276 277 277 277 277 277
286 286 286 287 289 290 289 288 287 287 287 285 284 284 284 282 282 277 278 277 275 279 281 275 273 271 271 274 270 271 274 277 277 276 276 276 276 276 276 276 276 277 277
286 286 285 285 286 287 289 288 289 288 288 287 285 284 285 283 282 281 280 280 276 277 275 276 273 272 269 271 274 276 277 276 275 275 275 276 277 276 275 275 275 275 275
288 287 287 286 286 285 287 287 287 287 287 286 286 286 284 282 282 282 281 281 281 280 277 277 278 277 277 277 277 275 277 276 276 276 275 275 274 274 274 275 274 274 273
287 287 287 286 286 287 286 285 279 279 282 281 283 285 285 280 281 279 279 279 278 276 276 278 278 278 277 277 276 276 276 273 276 275 275 275 274 273 273 274 275 274 272
287 286 286 286 286 286 286 285 284 280 278 279 280 279 281 279 279 279 279 278 278 276 277 278 277 277 277 277 276 276 275 276 273 274 274 274 274 273 273 273 273 273 272
287 285 288 287 288 287 286 286 286 285 282 281 279 279 278 279 278 279 279 279 279 279 278 278 278 278 277 277 277 276 276 276 275 275 274 274 273 273 273 272 272 271 271
286 286 287 286 286 286 285 285 285 284 283 283 282 280 280 279 279 279 279 279 279 280 280 278 278 278 278 278 277 277 276 275 275 275 274 274 273 273 272 272 272 271 271
285 285 284 286 286 285 285 284 283 283 282 282 282 282 283 281 280 280 281 281 281 281 281 281 280 279 278 278 277 277 276 276 275 274 274 275 275 275 273 272 272 271 271
286 286 283 285 285 284 284 283 283 283 282 282 283 285 283 282 281 282 282 283 283 282 282 281 280 280 279 278 277 277 276 276 275 275 275 274 274 273 273 272 272 271 270
286 285 283 283 284 283 283 283 282 282 282 282 283 284 282 283 282 282 282 283 284 283 282 281 280 280 280 278 277 276 276 275 275 275 275 274 273 273 272 272 271 270 270
285 284 283 282 283 282 282 282 282 282 283 283 283 283 282 281 282 282 283 284 283 283 282 281 280 279 280 279 278 277 276 275 275 275 272 272 271 271 271 270 269 269 268
284 284 283 282 282 282 282 282 282 282 283 284 284 284 283 283 283 283 283 284 283 282 282 280 280 279 278 278 278 276 275 274 273 271 270 269 268 268 268 267 267 266 266
284 284 283 283 282 282 283 282 283 284 284 283 283 283 283 283 282 283 283 283 282 281 281 280 279 277 274 271 272 269 265 260 263 261 265 266 265 265 264 265 265 265 264
283 283 283 283 283 283 283 283 282 283 282 282 282 283 282 282 282 282 282 282 280 279 277 275 273 271 270 269 266 263 260 258 260 258 261 264 264 265 265 264 263 263 263
Wind_Speed
11 9 9 8 8 8 7 6 7 7 6 6 6 6 7 8 7 8 8 7 8 8 8 9 9 8 6 6 5 5 6 6 8 9 8 10 11 13 12 11 9 8 8
11 10 10 10 9 9 8 7 7 8 6 6 6 7 7 7 8 8 8 8 8 8 8 9 10 6 8 7 6 8 7 7 7 11 10 9 12 13 12 11 9 7 9
12 11 11 10 9 9 9 8 8 8 7 7 6 6 7 6 7 7 7 7 8 8 8 9 10 10 9 7 8 8 8 7 7 7 8 8 9 11 12 11 10 9 6
13 12 11 11 10 10 9 9 8 7 7 7 6 6 6 6 6 7 6 7 7 8 7 9 10 10 10 10 8 9 8 8 8 7 8 9 10 13 11 11 11 10 5
13 13 12 12 11 11 10 10 8 7 7 7 6 6 5 5 5 6 6 7 7 7 7 7 9 10 11 12 9 10 11 9 7 8 8 9 10 12 14 12 11 11 6
15 14 13 13 12 12 11 10 9 8 8 8 7 6 5 5 7 7 5 5 7 7 7 7 7 9 8 8 9 9 10 10 9 8 8 10 12 12 11 11 11 11 10
15 14 15 14 14 13 12 12 11 10 10 9 8 7 6 6 8 7 4 5 5 5 5 5 5 5 7 7 5 3 6 8 7 8 9 9 10 12 13 12 13 12 10
15 16 16 15 14 14 13 13 11 10 10 9 8 8 8 6 8 8 5 4 4 4 4 4 4 5 8 7 5 5 5 7 8 7 7 7 8 10 12 11 12 11 7
17 16 16 16 15 15 14 13 11 10 9 8 7 7 7 9 7 7 8 6 6 4 3 5 4 5 9 9 4 4 4 5 4 5 5 6 6 10 13 9 10 10 9
17 16 16 16 15 15 15 14 12 10 9 7 7 7 3 8 7 6 7 2 4 3 5 5 8 6 7 9 5 5 5 6 6 5 4 4 7 8 10 9 9 9 9
14 15 15 16 15 15 14 12 12 11 9 9 8 7 8 4 9 6 1 3 3 2 2 2 5 5 6 7 8 6 6 7 5 4 4 4 5 7 7 8 8 8 8
6 7 11 12 12 12 14 13 13 11 11 9 8 7 5 7 2 7 5 3 1 3 2 2 4 3 4 5 4 6 7 6 4 4 4 5 6 7 7 7 7 7 4
9 8 7 6 5 10 12 11 11 11 9 8 8 7 6 5 6 8 8 8 4 3 2 5 5 2 1 3 3 5 5 4 4 4 5 5 5 6 7 8 7 9 4
13 11 9 9 7 5 7 8 8 8 8 8 8 8 7 7 7 7 7 7 7 5 6 4 2 1 1 2 4 3 2 3 4 4 4 4 5 6 6 7 7 8 7
16 14 14 12 12 9 8 8 7 7 8 8 7 7 7 8 8 10 10 8 7 5 5 4 5 4 4 3 3 2 2 3 2 3 4 4 5 5 7 7 7 7 8
15 13 11 11 11 10 10 8 2 2 6 3 3 5 5 2 12 16 14 11 9 10 5 5 4 4 4 4 4 3 3 3 2 3 3 4 5 6 6 7 7 7 9
14 14 11 10 11 11 11 10 10 7 7 11 11 11 11 11 15 18 16 14 14 11 7 5 5 5 5 4 4 4 4 3 1 4 4 4 5 5 7 7 7 8 9
8 10 9 9 8 8 8 7 7 8 9 8 12 12 14 14 16 18 17 14 9 14 9 7 6 5 5 5 5 5 5 5 5 5 5 5 5 7 7 8 9 9 10
11 10 9 9 10 10 10 10 9 9 9 8 8 12 13 17 16 17 18 10 10 9 9 9 7 7 6 6 5 5 6 5 5 5 6 6 7 7 8 9 10 13 12
9 10 11 9 9 10 10 10 10 10 10 9 9 9 10 12 11 11 12 11 10 9 9 9 7 7 7 6 6 6 6 7 7 7 7 7 7 8 9 10 10 11 11
8 10 11 9 9 9 10 10 9 9 10 9 9 8 12 10 10 10 10 10 10 9 8 8 7 7 6 7 7 7 7 7 7 7 7 8 8 9 9 10 11 11 11
8 8 9 10 9 9 10 9 10 10 10 10 9 9 12 9 9 10 10 8 8 8 8 7 7 7 7 7 7 7 7 7 7 7 8 7 8 9 9 11 11 11 11
7 8 9 9 9 10 9 10 9 9 9 9 9 9 9 9 10 10 9 8 8 8 8 8 7 7 6 6 6 6 7 7 6 5 6 8 9 10 10 11 11 11 11
8 8 9 8 8 9 9 9 9 10 9 8 8 8 9 8 9 10 9 7 7 8 8 8 7 8 7 6 5 4 3 3 3 4 6 8 9 10 9 10 10 12 11
7 7 8 8 8 8 7 9 8 8 8 8 8 8 8 7 8 8 7 8 8 8 9 7 6 6 5 4 4 3 5 2 3 4 5 7 9 10 9 9 9 10 11
7 7 7 7 7 7 8 7 8 8 8 8 8 7 7 8 7 7 7 6 7 7 8 6 6 8 9 7 6 6 4 2 3 3 5 6 7 7 7 9 11 9 11
Wind_Direction
166 160 152 144 143 139 125 125 114 113 116 114 99 90 82 78 73 75 70 65 61 54 46 43 37 21 23 14 8 1 358 351 336 346 353 8 4 3 1 3 14 16 8
167 163 156 149 150 145 129 121 132 121 124 115 107 100 89 80 74 70 67 59 54 50 40 41 30 18 21 22 8 3 2 350 343 339 355 358 8 6 0 6 11 6 14
167 165 161 155 158 145 131 137 133 132 127 117 115 100 88 78 79 75 70 65 59 52 42 39 33 19 20 11 14 4 359 343 352 340 353 360 5 7 -0 7 15 1 19
169 171 161 163 159 150 140 134 130 135 127 104 96 97 96 95 88 81 66 68 67 60 51 45 39 29 16 7 7 8 356 346 355 351 2 0 10 4 3 0 3 359 37
172 171 167 160 160 151 144 134 134 140 133 127 122 112 95 90 64 66 73 69 54 61 54 51 49 40 34 25 3 5 2 355 3 356 7 1 8 2 2 351 357 350 14
179 172 174 163 162 158 151 146 143 145 137 127 121 120 119 103 98 78 67 68 55 55 45 30 42 36 34 49 32 32 22 7 11 3 6 3 2 2 350 347 354 352 357
179 175 174 171 167 162 160 159 161 157 147 140 143 133 131 127 124 108 88 85 85 72 54 37 34 38 27 7 34 27 74 35 18 349 4 9 353 354 344 346 352 347 349
177 181 175 173 170 168 169 171 167 163 161 159 155 156 147 135 145 141 145 117 101 83 64 42 34 30 30 9 8 14 22 24 19 7 18 9 1 354 346 335 345 339 349
182 179 178 175 175 173 176 175 174 173 169 165 161 164 158 134 154 172 221 179 145 132 113 53 24 37 25 11 4 12 16 31 22 14 11 12 357 14 0 349 1 354 357
180 180 176 178 181 179 180 178 179 181 174 165 168 171 98 138 148 162 248 171 175 151 144 137 75 23 29 18 3 2 10 6 360 357 16 11 3 16 19 9 359 355 356
181 177 176 180 184 183 182 180 180 181 177 179 174 174 177 167 137 151 200 181 173 158 148 120 81 35 19 23 356 24 9 318 341 336 3 18 15 12 14 7 10 352 349
165 164 173 182 182 184 184 182 185 184 186 184 182 179 181 170 138 161 151 22 94 158 142 105 95 53 39 22 4 6 346 312 352 1 8 18 7 9 5 1 1 354 3
154 148 140 137 160 188 182 181 187 190 188 188 189 195 191 190 167 163 172 165 164 162 147 96 108 108 176 198 34 353 315 359 358 5 9 10 3 359 348 356 356 354 345
163 160 157 162 151 163 167 178 194 192 192 191 196 201 196 190 190 178 187 182 172 183 158 163 155 25 303 282 252 239 335 357 342 357 356 356 353 356 359 359 351 351 343
179 180 180 180 183 174 188 184 197 199 201 197 200 200 195 202 201 189 188 191 187 182 166 200 217 225 248 237 237 236 265 276 302 338 342 349 353 349 356 351 351 345 343
178 181 185 185 186 190 192 191 174 352 193 224 188 199 193 267 175 186 189 189 181 160 204 233 241 244 266 271 261 258 246 232 299 305 315 330 336 335 348 330 337 338 336
183 181 179 192 191 195 198 201 200 192 215 219 213 210 209 192 185 186 189 194 194 186 232 242 244 254 255 257 257 253 257 246 319 269 288 301 305 312 305 322 321 323 323
167 173 178 187 185 191 198 203 203 203 206 202 212 206 204 197 193 196 199 201 214 210 225 241 244 241 248 253 251 247 241 235 237 260 276 289 294 294 302 306 314 313 314
176 181 188 187 192 197 202 208 210 210 211 208 190 196 206 207 206 210 210 221 226 231 220 230 242 247 241 243 247 250 249 252 268 281 284 286 285 284 288 294 299 301 298
196 194 195 197 197 202 207 210 212 214 213 211 209 206 196 200 207 211 212 219 227 231 233 236 227 231 235 240 238 241 241 236 239 244 256 270 280 287 292 293 297 299 300
199 198 202 211 208 206 212 213 216 214 217 215 217 208 215 199 217 219 215 220 225 232 228 232 229 230 221 233 239 240 241 256 263 271 279 285 290 293 296 296 297 296 298
201 206 197 216 216 214 216 214 213 214 217 220 222 214 202 216 224 226 228 223 223 222 228 224 227 229 222 226 233 236 245 255 267 275 279 288 294 294 295 294 295 297 297
204 209 207 212 215 210 211 217 212 214 220 221 224 220 196 220 224 228 228 225 224 216 220 216 220 224 222 220 232 244 257 269 290 314 298 294 297 295 300 299 296 297 301
206 206 212 211 207 213 215 214 218 221 225 222 218 224 228 219 224 226 226 223 214 211 207 202 208 212 209 212 202 223 259 298 298 289 293 291 292 294 297 301 298 294 292
200 207 212 213 212 212 215 220 218 222 219 225 228 230 230 226 226 224 220 215 213 207 194 180 178 168 171 156 126 127 87 103 309 331 280 275 279 288 282 284 292 292 294
207 211 214 217 219 218 221 221 222 223 227 230 231 231 231 230 228 223 215 199 189 176 144 134 129 130 140 132 121 114 139 168 265 274 295 281 281 286 289 294 295 290 291